Weather in Prilepy

Russia / Tula Oblast     54°03′04″N   37°41′28″E
temp.,
°C
wind,
m/s
gust,
m/s
humid.,
%
clouds,
%
prec.,
mm/h
press.,
hPa
HPBL,
m
27 october, wed
wed2700:00+3sw71663100 0.0 1023436
03:00+2sw61567100 0.0 1022389
06:00+2sw61471100 0.0 1020350
09:00+3sw71572100 0.0 1019469
12:00+7sw8136218 0.0 1018704
15:00+8wsw71262100 0.0 1017854
18:00+6w71376100 0.0 1018621
21:00+5w6128274 0.0 1018574
28 october, thu
thu2800:00+5wsw5118170 0.0 1018398
03:00+3sw51392100 0.0 1017316
06:00+4sw61488100 0.0 1015394
09:00+6sw71492100 1.4 1013613
12:00+6wsw61394100 0.6 1013561
15:00+8w51292100 0.6 1014570
18:00+9nw4109076 0.3 1015362
21:00+7nnw51188100 0.3 1019644
29 october, fri
fri2900:00+6nne5108445 0.0 1022537
03:00+5nne488543 0.0 1025355
06:00+4nne238398 0.0 102752
09:00+6ese226799 0.0 1029712
12:00+7s3363100 0.0 1029727
15:00+8sw34629 0.0 1029675
18:00+5sw35795 0.0 103085
21:00+4sw368536 0.0 1030113
30 october, sat
sat3000:00+4sw37875 0.0 1031129
03:00+3sw3890100 0.0 1031143
06:00+3wsw38915 0.0 1032133
09:00+4sw388511 0.0 1032205
12:00+9wsw57665 0.0 1032381
15:00+10sw476516 0.0 1031464
18:00+6sw488373 0.0 1031139
21:00+5sw49875 0.0 1032154
31 october, sun
sun3100:00+4sw39905 0.0 1032163
03:00+3sw49925 0.0 1032155
06:00+3sw38925 0.0 1031143
09:00+4sw38885 0.0 1032202
12:00+9sw57665 0.0 1030393
15:00+10sw47612 0.0 1029516
18:00+6ssw36775 0.0 102981
21:00+5ssw36805 0.0 102983